パンスターズ彗星

C/2016 N6 ( PanSTARRS )

English version
Home page
Updated on November 9, 2019

---------------------------------------------------------------------

・ プロフィール

発見日 2016年7月14日
発見光度 20.7等
発見者 Pan-STARRS 1 telescope (Haleakala)

・ 写真集

・ 軌道要素

Epoch 2018 July 21.0 TT = JDT 2458320.5
T 2018 July 18.21072 TT                                 Williams
q   2.6690701            (2000.0)            P               Q
z  +0.0004678      Peri.  162.80588     -0.53335013     +0.08479687
 +/-0.0000001      Node   298.97626     +0.61778904     +0.71869308
e   0.9987514      Incl.  105.83230     +0.57781861     -0.69013749
From 2981 observations 2016 June 27-2019 Oct. 15, mean residual 0".4.

・ 星図

・ 光度変化

        m1 = 3.5 + 5 logΔ + 14.0 log r

---------------------------------------------------------------------

軌道要素はM.P.E.C. 2019-V116に掲載されたものです。
星図はステラナビゲータ Ver.10 (アストロアーツ) で作成したものです。
光度グラフはComet for Windowsで作成したものです。

---------------------------------------------------------------------

Copyright(C) Seiichi Yoshida (comet@aerith.net). All rights reserved.